Tracking 29042 objects as of 22-Jun-2024
HD Live streaming from Space Station
objects crossing your sky now

STARLINK-31779

Track STARLINK-31779 now!
10-day predictions
STARLINK-31779 is classified as:


NORAD ID: 59744
Int'l Code: 2024-090Q
Perigee: 450.4 km
Apogee: 452.0 km
Inclination: 43.0 °
Period: 93.5 minutes
Semi major axis: 6822 km
RCS: Unknown
Launch date: May 13, 2024
Source: United States (US)
Launch site: AIR FORCE EASTERN TEST RANGE (AFETR)
Your satellite tracking list
Your tracking list is empty




NASA's NSSDC Master Catalog

Two Line Element Set (TLE):
1 59744U 24090Q   24173.31294631  .00001922  00000-0  53268-4 0  9992
2 59744  42.9997 148.6557 0001153 271.1941  88.8784 15.40698455  7302
Source of the keplerian elements: AFSPC